Simultaneous Nadir Overpasses (SNOs) Predictions

Prediction of SNOs between LANDSAT-8 and NPP Satellite Orbit:

Table of predicted SNOs for the next 14.0 days since TLE Epoch: 5/14/2016
Index Date (LANDSAT-8) Time (LANDSAT-8) Lat,Lon (LANDSAT-8) SZA (LANDSAT-8 ) Date (NPP) Time (NPP) Lat,Lon (NPP) SZA (NPP ) Distance(km) Time Diff (sec)
1 05/16/2016 13:52:00 -70.25, 148.57 129.12 05/16/2016 13:51:10 -70.25, 148.57 129.11 0.13 50
2 05/16/2016 14:41:27 70.15, -43.93 50.78 05/16/2016 14:41:54 70.13, -43.93 50.75 2.47 27
3 05/16/2016 15:31:13 -69.16, 122.35 130.19 05/16/2016 15:32:19 -69.15, 124.82 130.26 97.82 66
4 05/19/2016 05:18:46 71.15, 98.18 51.19 05/19/2016 05:17:40 71.21, 95.45 51.31 98.44 66
5 05/19/2016 06:08:31 -70.23, -95.59 129.73 05/19/2016 06:08:05 -70.24, -95.64 129.71 2.76 26
6 05/19/2016 06:57:58 70.12, 71.90 50.16 05/19/2016 06:58:49 70.12, 71.86 50.16 1.83 51
7 05/21/2016 21:35:31 70.35,-147.16 49.86 05/21/2016 21:34:19 70.37,-147.39 49.89 8.99 72
8 05/21/2016 22:25:02 -70.19, 20.24 130.31 05/21/2016 22:24:59 -70.18, 20.22 130.32 1.62 3
9 05/21/2016 23:14:30 70.03,-172.35 49.53 05/21/2016 23:15:42 70.00,-172.21 49.50 5.89 72
10 05/24/2016 13:52:03 70.25, -31.42 49.26 05/24/2016 13:51:12 70.26, -31.46 49.28 1.64 51
11 05/24/2016 14:41:33 -70.15, 136.07 130.85 05/24/2016 14:41:53 -70.12, 136.07 130.88 3.17 20
12 05/24/2016 15:31:16 69.15, -57.65 48.18 05/24/2016 15:32:21 69.15, -55.20 48.13 97.07 65
13 05/27/2016 06:08:33 70.20, 84.39
